Time,TemperatureF,DewpointF,PressureIn,WindDirection,WindDirectionDegrees,WindSpeedMPH,WindSpeedGustMPH,Humidity,HourlyPrecipIn,Conditions,Clouds,dailyrainin,SoftwareType,DateUTC
2013-05-08 00:06:00,50.9,50.0,29.97,WSW,245,0.0,0.0,97,0.00,,,0.00,weatherlink.com 1.10,2013-05-08 04:06:00,
2013-05-08 00:21:00,50.8,50.0,29.96,WSW,246,0.0,0.0,97,0.00,,,0.00,weatherlink.com 1.10,2013-05-08 04:21:00,
2013-05-08 00:36:00,50.8,50.0,29.96,WSW,245,0.0,0.0,97,0.00,,,0.00,weatherlink.com 1.10,2013-05-08 04:36:00,
2013-05-08 00:51:00,50.8,50.0,29.96,WSW,246,0.0,0.0,97,0.00,,,0.00,weatherlink.com 1.10,2013-05-08 04:51:00,
2013-05-08 01:07:00,50.6,50.0,29.96,WSW,246,0.0,0.0,97,0.00,,,0.00,weatherlink.com 1.10,2013-05-08 05:07:00,
2013-05-08 01:22:00,50.4,50.0,29.96,WNW,288,0.0,1.0,97,0.00,,,0.00,weatherlink.com 1.10,2013-05-08 05:22:00,
2013-05-08 01:37:00,50.4,50.0,29.96,WNW,288,0.0,0.0,97,0.00,,,0.00,weatherlink.com 1.10,2013-05-08 05:37:00,
2013-05-08 01:52:00,50.4,50.0,29.95,WNW,288,0.0,0.0,97,0.00,,,0.00,weatherlink.com 1.10,2013-05-08 05:52:00,
2013-05-08 02:07:00,50.2,49.0,29.95,WNW,288,0.0,0.0,97,0.00,,,0.00,weatherlink.com 1.10,2013-05-08 06:07:00,
2013-05-08 02:22:00,50.3,50.0,29.94,WNW,288,0.0,0.0,97,0.00,,,0.00,weatherlink.com 1.10,2013-05-08 06:22:00,
2013-05-08 02:37:00,50.3,50.0,29.94,WNW,288,0.0,0.0,97,0.00,,,0.00,weatherlink.com 1.10,2013-05-08 06:37:00,
2013-05-08 02:52:00,50.1,49.0,29.94,WNW,288,0.0,1.0,97,0.00,,,0.00,weatherlink.com 1.10,2013-05-08 06:52:00,
2013-05-08 03:07:00,49.6,49.0,29.94,WNW,285,0.0,0.0,97,0.00,,,0.00,weatherlink.com 1.10,2013-05-08 07:07:00,
2013-05-08 03:22:00,49.3,49.0,29.94,WNW,285,0.0,0.0,97,0.01,,,0.01,weatherlink.com 1.10,2013-05-08 07:22:00,
2013-05-08 03:37:00,49.0,48.0,29.94,WNW,285,0.0,0.0,97,0.01,,,0.01,weatherlink.com 1.10,2013-05-08 07:37:00,
2013-05-08 03:52:00,48.7,48.0,29.95,WNW,285,0.0,0.0,97,0.01,,,0.01,weatherlink.com 1.10,2013-05-08 07:52:00,
2013-05-08 04:07:00,48.4,48.0,29.95,WNW,285,0.0,0.0,97,0.01,,,0.01,weatherlink.com 1.10,2013-05-08 08:07:00,
2013-05-08 04:22:00,48.2,47.0,29.95,WNW,285,0.0,0.0,97,0.00,,,0.01,weatherlink.com 1.10,2013-05-08 08:22:00,
2013-05-08 04:37:00,48.1,47.0,29.95,WNW,283,0.0,0.0,97,0.00,,,0.01,weatherlink.com 1.10,2013-05-08 08:37:00,
2013-05-08 04:52:00,48.1,47.0,29.95,West,280,0.0,0.0,97,0.00,,,0.01,weatherlink.com 1.10,2013-05-08 08:52:00,
2013-05-08 05:07:00,48.0,47.0,29.95,SSW,197,0.0,1.0,97,0.00,,,0.01,weatherlink.com 1.10,2013-05-08 09:07:00,
2013-05-08 05:22:00,47.6,47.0,29.95,SSW,197,0.0,0.0,97,0.00,,,0.01,weatherlink.com 1.10,2013-05-08 09:22:00,
2013-05-08 05:37:00,47.4,47.0,29.95,SSW,207,0.0,0.0,97,0.00,,,0.01,weatherlink.com 1.10,2013-05-08 09:37:00,
2013-05-08 05:52:00,47.3,47.0,29.95,SSW,207,0.0,1.0,97,0.00,,,0.01,weatherlink.com 1.10,2013-05-08 09:52:00,
2013-05-08 06:07:00,47.4,47.0,29.96,SSW,206,0.0,0.0,97,0.00,,,0.01,weatherlink.com 1.10,2013-05-08 10:07:00,
2013-05-08 06:22:00,47.5,47.0,29.96,SSW,207,0.0,0.0,97,0.00,,,0.01,weatherlink.com 1.10,2013-05-08 10:22:00,
2013-05-08 06:37:00,47.7,47.0,29.96,SSW,206,0.0,0.0,97,0.00,,,0.01,weatherlink.com 1.10,2013-05-08 10:37:00,
2013-05-08 06:52:00,48.0,47.0,29.97,SSW,206,0.0,0.0,97,0.00,,,0.01,weatherlink.com 1.10,2013-05-08 10:52:00,
2013-05-08 07:07:00,48.3,48.0,29.97,SSW,207,0.0,0.0,97,0.00,,,0.01,weatherlink.com 1.10,2013-05-08 11:07:00,
2013-05-08 07:22:00,48.5,48.0,29.98,SSW,207,0.0,0.0,97,0.00,,,0.01,weatherlink.com 1.10,2013-05-08 11:22:00,
2013-05-08 07:37:00,48.7,48.0,29.98,SSW,207,0.0,0.0,97,0.00,,,0.01,weatherlink.com 1.10,2013-05-08 11:37:00,
2013-05-08 07:52:00,49.2,48.0,29.98,SSW,207,0.0,0.0,97,0.00,,,0.01,weatherlink.com 1.10,2013-05-08 11:52:00,
2013-05-08 08:07:00,49.4,49.0,29.99,SW,214,0.0,1.0,97,0.00,,,0.01,weatherlink.com 1.10,2013-05-08 12:07:00,
2013-05-08 08:22:00,50.0,49.0,29.99,SW,214,0.0,0.0,97,0.00,,,0.01,weatherlink.com 1.10,2013-05-08 12:22:00,
2013-05-08 08:37:00,50.3,50.0,29.99,SW,214,0.0,1.0,97,0.00,,,0.01,weatherlink.com 1.10,2013-05-08 12:37:00,
2013-05-08 08:52:00,51.1,50.0,29.99,SW,214,1.0,1.0,97,0.00,,,0.01,weatherlink.com 1.10,2013-05-08 12:52:00,
2013-05-08 09:07:00,51.7,51.0,30.00,SSW,212,0.0,1.0,97,0.00,,,0.01,weatherlink.com 1.10,2013-05-08 13:07:00,
2013-05-08 09:22:00,52.2,51.0,30.00,SSW,212,0.0,1.0,97,0.00,,,0.01,weatherlink.com 1.10,2013-05-08 13:22:00,
2013-05-08 09:37:00,53.9,53.0,30.00,SE,134,0.0,1.0,97,0.00,,,0.01,weatherlink.com 1.10,2013-05-08 13:37:00,
2013-05-08 09:52:00,55.2,54.0,30.00,WSW,240,1.0,2.0,95,0.00,,,0.01,weatherlink.com 1.10,2013-05-08 13:52:00,
2013-05-08 10:07:00,55.2,54.0,30.01,SE,141,1.0,2.0,94,0.00,,,0.01,weatherlink.com 1.10,2013-05-08 14:07:00,
2013-05-08 10:23:00,55.2,53.0,30.00,SSE,148,0.0,2.0,93,0.00,,,0.01,weatherlink.com 1.10,2013-05-08 14:23:00,
2013-05-08 10:38:00,55.1,54.0,30.01,SE,132,0.0,1.0,94,0.00,,,0.01,weatherlink.com 1.10,2013-05-08 14:38:00,
2013-05-08 10:53:00,55.3,54.0,30.01,SE,133,0.0,1.0,94,0.00,,,0.01,weatherlink.com 1.10,2013-05-08 14:53:00,
2013-05-08 11:08:00,55.4,54.0,30.01,SE,132,0.0,1.0,94,0.00,,,0.01,weatherlink.com 1.10,2013-05-08 15:08:00,
2013-05-08 11:23:00,56.0,55.0,30.01,SE,133,0.0,1.0,95,0.00,,,0.01,weatherlink.com 1.10,2013-05-08 15:23:00,
2013-05-08 11:38:00,57.4,56.0,30.01,ENE,69,0.0,1.0,94,0.00,,,0.01,weatherlink.com 1.10,2013-05-08 15:38:00,
2013-05-08 11:53:00,58.5,56.0,30.00,ESE,116,0.0,1.0,91,0.00,,,0.01,weatherlink.com 1.10,2013-05-08 15:53:00,
2013-05-08 12:08:00,58.8,56.0,30.00,SSW,211,1.0,1.0,90,0.00,,,0.01,weatherlink.com 1.10,2013-05-08 16:08:00,
2013-05-08 12:23:00,59.0,56.0,30.00,ESE,118,1.0,1.0,89,0.00,,,0.01,weatherlink.com 1.10,2013-05-08 16:23:00,
2013-05-08 12:38:00,59.2,56.0,30.00,SSW,212,0.0,1.0,89,0.00,,,0.01,weatherlink.com 1.10,2013-05-08 16:38:00,
2013-05-08 12:53:00,58.7,56.0,30.00,SSW,211,0.0,1.0,90,0.00,,,0.01,weatherlink.com 1.10,2013-05-08 16:53:00,
2013-05-08 13:08:00,60.1,57.0,29.99,SE,134,1.0,2.0,89,0.00,,,0.01,weatherlink.com 1.10,2013-05-08 17:08:00,
2013-05-08 13:23:00,61.1,57.0,30.00,WSW,252,0.0,2.0,87,0.00,,,0.01,weatherlink.com 1.10,2013-05-08 17:23:00,
2013-05-08 13:38:00,61.1,57.0,29.99,WSW,238,0.0,2.0,87,0.00,,,0.01,weatherlink.com 1.10,2013-05-08 17:38:00,
2013-05-08 13:53:00,61.2,57.0,29.98,SSW,205,0.0,1.0,87,0.00,,,0.01,weatherlink.com 1.10,2013-05-08 17:53:00,
2013-05-08 14:08:00,62.1,58.0,29.98,SW,215,1.0,2.0,86,0.00,,,0.01,weatherlink.com 1.10,2013-05-08 18:08:00,
2013-05-08 14:23:00,62.4,58.0,29.99,SSW,208,1.0,3.0,86,0.00,,,0.01,weatherlink.com 1.10,2013-05-08 18:23:00,
2013-05-08 14:38:00,63.4,59.0,29.98,SW,217,5.0,5.0,85,0.00,,,0.01,weatherlink.com 1.10,2013-05-08 18:38:00,
2013-05-08 14:53:00,65.3,59.0,29.98,SE,142,2.0,3.0,81,0.00,,,0.01,weatherlink.com 1.10,2013-05-08 18:53:00,
2013-05-08 15:08:00,66.3,59.0,29.98,SSW,203,1.0,4.0,76,0.00,,,0.01,weatherlink.com 1.10,2013-05-08 19:08:00,
2013-05-08 15:23:00,66.1,59.0,29.98,SSW,203,1.0,3.0,77,0.00,,,0.01,weatherlink.com 1.10,2013-05-08 19:23:00,
2013-05-08 15:38:00,65.9,58.0,29.97,South,186,2.0,5.0,76,0.00,,,0.01,weatherlink.com 1.10,2013-05-08 19:38:00,
2013-05-08 15:53:00,66.0,59.0,29.96,SSE,166,2.0,5.0,79,0.00,,,0.01,weatherlink.com 1.10,2013-05-08 19:53:00,
2013-05-08 16:08:00,68.3,61.0,29.96,WNW,283,1.0,4.0,77,0.00,,,0.01,weatherlink.com 1.10,2013-05-08 20:08:00,
2013-05-08 16:23:00,69.3,58.0,29.96,SE,135,1.0,6.0,68,0.00,,,0.01,weatherlink.com 1.10,2013-05-08 20:23:00,
2013-05-08 16:38:00,69.4,58.0,29.96,WSW,240,0.0,4.0,67,0.00,,,0.01,weatherlink.com 1.10,2013-05-08 20:38:00,
2013-05-08 16:53:00,68.4,57.0,29.96,SSW,212,1.0,4.0,66,0.00,,,0.01,weatherlink.com 1.10,2013-05-08 20:53:00,
2013-05-08 17:08:00,67.4,56.0,29.96,NW,305,0.0,3.0,68,0.00,,,0.01,weatherlink.com 1.10,2013-05-08 21:08:00,
2013-05-08 17:23:00,66.9,56.0,29.96,WNW,285,0.0,2.0,68,0.00,,,0.01,weatherlink.com 1.10,2013-05-08 21:23:00,
2013-05-08 17:38:00,66.4,55.0,29.96,SSW,207,2.0,6.0,67,0.00,,,0.01,weatherlink.com 1.10,2013-05-08 21:38:00,
2013-05-08 17:53:00,66.1,56.0,29.96,SSW,208,1.0,4.0,69,0.00,,,0.01,weatherlink.com 1.10,2013-05-08 21:53:00,
2013-05-08 18:08:00,65.9,57.0,29.97,South,180,0.0,1.0,72,0.00,,,0.01,weatherlink.com 1.10,2013-05-08 22:08:00,
2013-05-08 18:23:00,65.0,55.0,29.97,ENE,72,1.0,2.0,71,0.00,,,0.01,weatherlink.com 1.10,2013-05-08 22:23:00,
2013-05-08 18:38:00,63.6,57.0,29.98,North,8,1.0,5.0,78,0.00,,,0.01,weatherlink.com 1.10,2013-05-08 22:38:00,
2013-05-08 18:53:00,60.7,57.0,29.99,NE,43,1.0,2.0,88,0.02,,,0.03,weatherlink.com 1.10,2013-05-08 22:53:00,
2013-05-08 19:08:00,59.8,57.0,30.00,SE,127,0.0,1.0,91,0.03,,,0.04,weatherlink.com 1.10,2013-05-08 23:08:00,
2013-05-08 19:23:00,59.1,57.0,30.00,ESE,115,0.0,4.0,91,0.05,,,0.06,weatherlink.com 1.10,2013-05-08 23:23:00,
2013-05-08 19:38:00,58.8,57.0,30.00,ESE,117,0.0,1.0,92,0.06,,,0.07,weatherlink.com 1.10,2013-05-08 23:38:00,
2013-05-08 19:53:00,58.9,57.0,30.01,ESE,115,0.0,0.0,93,0.04,,,0.07,weatherlink.com 1.10,2013-05-08 23:53:00,
2013-05-08 20:09:00,58.5,57.0,30.01,ESE,117,0.0,0.0,93,0.03,,,0.07,weatherlink.com 1.10,2013-05-09 00:09:00,
2013-05-08 20:23:00,58.0,56.0,30.00,ESE,117,0.0,0.0,94,0.01,,,0.07,weatherlink.com 1.10,2013-05-09 00:23:00,
2013-05-08 20:38:00,57.5,56.0,30.01,ESE,116,0.0,0.0,94,0.00,,,0.07,weatherlink.com 1.10,2013-05-09 00:38:00,
2013-05-08 20:53:00,57.0,56.0,30.02,ESE,117,0.0,0.0,95,0.00,,,0.07,weatherlink.com 1.10,2013-05-09 00:53:00,
2013-05-08 21:09:00,56.8,55.0,30.01,ESE,117,0.0,0.0,95,0.00,,,0.07,weatherlink.com 1.10,2013-05-09 01:09:00,
2013-05-08 21:24:00,56.5,55.0,30.02,ESE,119,0.0,0.0,95,0.00,,,0.07,weatherlink.com 1.10,2013-05-09 01:24:00,
2013-05-08 21:39:00,56.4,55.0,30.03,ESE,118,0.0,0.0,95,0.00,,,0.07,weatherlink.com 1.10,2013-05-09 01:39:00,
2013-05-08 21:54:00,56.3,55.0,30.03,ESE,118,0.0,0.0,96,0.00,,,0.07,weatherlink.com 1.10,2013-05-09 01:54:00,
2013-05-08 22:09:00,56.4,55.0,30.04,ESE,118,0.0,0.0,96,0.00,,,0.07,weatherlink.com 1.10,2013-05-09 02:09:00,
2013-05-08 22:24:00,56.1,55.0,30.05,East,95,0.0,0.0,96,0.00,,,0.07,weatherlink.com 1.10,2013-05-09 02:24:00,
2013-05-08 22:39:00,55.6,55.0,30.05,East,94,0.0,0.0,96,0.00,,,0.07,weatherlink.com 1.10,2013-05-09 02:39:00,
2013-05-08 22:54:00,55.0,54.0,30.04,East,95,0.0,0.0,96,0.00,,,0.07,weatherlink.com 1.10,2013-05-09 02:54:00,
2013-05-08 23:09:00,54.8,54.0,30.04,East,95,1.0,1.0,96,0.00,,,0.07,weatherlink.com 1.10,2013-05-09 03:09:00,
2013-05-08 23:24:00,54.1,53.0,30.04,SSE,155,0.0,0.0,96,0.00,,,0.07,weatherlink.com 1.10,2013-05-09 03:24:00,
2013-05-08 23:39:00,54.0,53.0,30.04,SSE,155,0.0,0.0,96,0.00,,,0.07,weatherlink.com 1.10,2013-05-09 03:39:00,
2013-05-08 23:54:00,53.7,53.0,30.04,SSE,155,0.0,0.0,96,0.00,,,0.07,weatherlink.com 1.10,2013-05-09 03:54:00,